Crane Lake, MN

1:06 AM CDT on April 23, 2017 (GMT -0500)
Crane Lake

Weather History for KCDD - February, 2014

Change the Weather History Date:

Thursday, February 20, 2014

  Actual Average Record
Temperature  
Mean Temperature 30 °F -  
Max Temperature 37 °F 25 °F 46 °F (2017)
Min Temperature 24 °F 3 °F -27 °F (2013)
Degree Days  
Heating Degree Days 34    
Moisture  
Dew Point 23 °F    
Average Humidity 80    
Maximum Humidity 100    
Minimum Humidity 60    
Precipitation  
Precipitation 0.19 in - - ()
Sea Level Pressure  
Sea Level Pressure 29.56 in    
Wind  
Wind Speed 1 mph (ENE)    
Max Wind Speed 7 mph    
Max Gust Speed -    
Visibility 6 miles    
Events Snow    
Averages and records for this station are not official NWS values.
T = Trace of Precipitation, MM = Missing Value Source: NWS Daily Summary

Daily Weather History Graph

Daily Weather History Graph

Search for Another Location

Airport or City:

Trip Planner

Search our weather history database for the weather conditions in past years. The results will help you decide how hot, cold, wet, or windy it might be!

Date:

Astronomy

Feb. 20, 2014 Rise Set
Actual Time 7:07 AM CST 5:40 PM CST
Civil Twilight 6:36 AM CST 6:11 PM CST
Nautical Twilight 5:59 AM CST 6:48 PM CST
Astronomical Twilight 5:23 AM CST 7:24 PM CST
Moon No Moon Rise 9:23 AM CST (2/20)
Length of Visible Light 11h 35m
Length of Day
10h 32m
Waning Gibbous, 70% of the Moon is Illuminated
Feb 20
Waning Gibbous
Feb 22
Last Quarter
Mar 1
New
Mar 8
First Quarter
Mar 16
Full

Hourly Weather History & Observations

Time (CST) Temp. Windchill Dew Point Humidity Pressure Visibility Wind Dir Wind Speed Gust Speed Precip Events Conditions
12:12 AM 28.4 °F - 19.4 °F 69% 29.70 in 10.0 mi Calm Calm - N/A   Overcast
12:32 AM 28.4 °F - 19.4 °F 69% 29.70 in 10.0 mi Calm Calm - N/A   Overcast
12:51 AM 28.4 °F - 19.4 °F 69% 29.70 in 10.0 mi Calm Calm - N/A   Overcast
1:11 AM 28.4 °F - 19.4 °F 69% 29.69 in 10.0 mi Calm Calm - N/A   Overcast
1:31 AM 28.4 °F - 19.4 °F 69% 29.69 in 10.0 mi Calm Calm - N/A   Overcast
1:52 AM 28.4 °F 24.6 °F 21.2 °F 74% 29.67 in 10.0 mi East 3.5 mph - N/A   Overcast
2:12 AM 28.4 °F 24.6 °F 21.2 °F 74% 29.65 in 10.0 mi SE 3.5 mph - N/A   Overcast
2:32 AM 28.4 °F 24.6 °F 21.2 °F 74% 29.65 in 10.0 mi ESE 3.5 mph - N/A   Mostly Cloudy
2:52 AM 26.6 °F - 19.4 °F 74% 29.64 in 10.0 mi Calm Calm - N/A   Scattered Clouds
3:12 AM 26.6 °F 22.6 °F 21.2 °F 80% 29.64 in 10.0 mi SE 3.5 mph - N/A   Mostly Cloudy
3:31 AM 28.4 °F - 21.2 °F 74% 29.63 in 10.0 mi Calm Calm - N/A   Overcast
3:52 AM 26.6 °F 22.6 °F 21.2 °F 80% 29.63 in 10.0 mi SE 3.5 mph - N/A   Mostly Cloudy
4:12 AM 26.6 °F 22.6 °F 19.4 °F 74% 29.63 in 10.0 mi SE 3.5 mph - N/A   Scattered Clouds
4:32 AM 26.6 °F 22.6 °F 19.4 °F 74% 29.63 in 10.0 mi SE 3.5 mph - N/A   Scattered Clouds
4:51 AM 26.6 °F - 19.4 °F 74% 29.62 in 10.0 mi Calm Calm - N/A   Scattered Clouds
5:12 AM 24.8 °F - 19.4 °F 80% 29.63 in 10.0 mi Calm Calm - N/A   Clear
5:32 AM 24.8 °F - 17.6 °F 74% 29.62 in 10.0 mi Calm Calm - N/A   Clear
5:52 AM 24.8 °F - 17.6 °F 74% 29.62 in 10.0 mi Calm Calm - N/A   Clear
6:12 AM 24.8 °F - 19.4 °F 80% 29.63 in 10.0 mi Calm Calm - N/A   Scattered Clouds
6:32 AM 24.8 °F - 19.4 °F 80% 29.63 in 10.0 mi Calm Calm - N/A   Mostly Cloudy
6:52 AM 26.6 °F - 19.4 °F 74% 29.62 in 10.0 mi Calm Calm - N/A   Overcast
7:11 AM 24.8 °F - 19.4 °F 80% 29.62 in 10.0 mi Calm Calm - N/A   Mostly Cloudy
7:32 AM 24.8 °F - 19.4 °F 80% 29.63 in 10.0 mi Calm Calm - N/A   Clear
7:52 AM 24.8 °F - 19.4 °F 80% 29.63 in 10.0 mi Calm Calm - N/A   Scattered Clouds
8:12 AM 24.8 °F - 19.4 °F 80% 29.62 in 10.0 mi Calm Calm - N/A   Overcast
8:32 AM 26.6 °F 22.6 °F 21.2 °F 80% 29.62 in 10.0 mi SE 3.5 mph - N/A   Overcast
8:52 AM 28.4 °F - 21.2 °F 74% 29.62 in 10.0 mi Calm Calm - N/A   Overcast
9:11 AM 28.4 °F - 23.0 °F 80% 29.61 in 10.0 mi Calm Calm - N/A   Overcast
9:32 AM 32.0 °F - 23.0 °F 69% 29.61 in 10.0 mi Calm Calm - N/A   Overcast
9:52 AM 33.8 °F 29.6 °F 24.8 °F 70% 29.61 in 10.0 mi SSE 4.6 mph - N/A   Overcast
10:12 AM 33.8 °F - 24.8 °F 70% 29.61 in 10.0 mi Calm Calm - N/A   Overcast
10:32 AM 33.8 °F 30.8 °F 24.8 °F 70% 29.61 in 10.0 mi ESE 3.5 mph - N/A   Overcast
10:52 AM 33.8 °F 30.8 °F 24.8 °F 70% 29.61 in 10.0 mi SSE 3.5 mph - N/A   Overcast
11:11 AM 35.6 °F 29.9 °F 24.8 °F 65% 29.60 in 10.0 mi SE 6.9 mph - N/A   Overcast
11:31 AM 35.6 °F 31.7 °F 24.8 °F 65% 29.60 in 10.0 mi SSE 4.6 mph - N/A   Mostly Cloudy
11:51 AM 37.4 °F 34.9 °F 24.8 °F 60% 29.59 in 10.0 mi SSE 3.5 mph - N/A   Scattered Clouds
12:11 PM 35.6 °F 32.8 °F 24.8 °F 65% 29.58 in 10.0 mi SE 3.5 mph - N/A   Mostly Cloudy
12:32 PM 35.6 °F 32.8 °F 23.0 °F 60% 29.58 in 10.0 mi SE 3.5 mph - N/A   Mostly Cloudy
12:52 PM 35.6 °F 30.7 °F 24.8 °F 65% 29.58 in 10.0 mi SSE 5.8 mph - N/A   Overcast
1:11 PM 33.8 °F - 24.8 °F 70% 29.58 in 1.5 mi Calm Calm - N/A Snow Light Snow
1:33 PM 32.0 °F - 26.6 °F 80% 29.57 in 1.5 mi Calm Calm - N/A Snow Light Snow
1:52 PM 32.0 °F - 24.8 °F 75% 29.56 in 1.0 mi Calm Calm - N/A Snow Light Snow
2:12 PM 30.2 °F - 26.6 °F 86% 29.55 in 0.5 mi Calm Calm - N/A Snow Snow
2:32 PM 30.2 °F - 26.6 °F 86% 29.55 in 0.2 mi Calm Calm - 0.01 in Snow Snow
2:52 PM 30.2 °F - 26.6 °F 86% 29.55 in 0.2 mi Calm Calm - 0.03 in Snow Snow
3:12 PM 30.2 °F - 26.6 °F 86% 29.55 in 0.2 mi Calm Calm - 0.02 in Snow Snow
3:32 PM 30.2 °F - 26.6 °F 86% 29.55 in 0.5 mi Calm Calm - 0.04 in Snow Snow
3:51 PM 30.2 °F - 26.6 °F 86% 29.55 in 0.5 mi Calm Calm - 0.06 in Snow Snow
4:12 PM 30.2 °F - 26.6 °F 86% 29.55 in 0.8 mi Calm Calm - 0.01 in Snow Light Snow
4:31 PM 30.2 °F - 26.6 °F 86% 29.55 in 1.0 mi Calm Calm - 0.01 in Snow Light Snow
4:52 PM 28.4 °F - 24.8 °F 86% 29.55 in 0.8 mi Calm Calm - 0.02 in Snow Light Snow
5:11 PM 28.4 °F - 24.8 °F 86% 29.55 in 0.8 mi Calm Calm - N/A Snow Light Snow
5:31 PM 28.4 °F - 24.8 °F 86% 29.54 in 0.8 mi Calm Calm - 0.01 in Snow Light Snow
5:51 PM 28.4 °F - 24.8 °F 86% 29.53 in 1.0 mi Calm Calm - 0.01 in Snow Light Snow
6:12 PM 28.4 °F - 24.8 °F 86% 29.52 in 0.8 mi Calm Calm - 0.01 in Snow Light Snow
6:31 PM 28.4 °F - 24.8 °F 86% 29.52 in 1.0 mi Calm Calm - 0.01 in Snow Light Snow
6:51 PM 28.4 °F - 23.0 °F 80% 29.50 in 1.2 mi Calm Calm - 0.02 in Snow Light Snow
7:12 PM 28.4 °F - 24.8 °F 86% 29.48 in 1.2 mi Calm Calm - N/A Snow Light Snow
7:31 PM 28.4 °F 24.6 °F 24.8 °F 86% 29.46 in 1.0 mi NNW 3.5 mph - N/A Snow Light Snow
7:51 PM 28.4 °F 23.3 °F 26.6 °F 93% 29.45 in 1.0 mi North 4.6 mph - N/A Snow Light Snow
8:11 PM 28.4 °F 24.6 °F 26.6 °F 93% 29.44 in 0.8 mi North 3.5 mph - N/A Snow Snow
8:31 PM 26.6 °F 22.6 °F 26.6 °F 100% 29.44 in 0.5 mi North 3.5 mph - 0.01 in Snow Light Snow
8:52 PM 26.6 °F 21.2 °F 26.6 °F 100% 29.43 in 0.2 mi North 4.6 mph - 0.01 in Snow Snow
9:11 PM 26.6 °F 21.2 °F 26.6 °F 100% 29.43 in 0.2 mi North 4.6 mph - 0.01 in Snow Snow
9:31 PM 26.6 °F 20.0 °F 24.8 °F 93% 29.41 in 0.5 mi NNW 5.8 mph - 0.02 in Snow Snow
9:51 PM 26.6 °F 21.2 °F 24.8 °F 93% 29.39 in 0.5 mi North 4.6 mph - 0.02 in Snow Snow
10:12 PM 26.6 °F 20.0 °F 24.8 °F 93% 29.37 in 0.5 mi NNW 5.8 mph - 0.01 in Snow Snow
10:31 PM 26.6 °F 19.1 °F 24.8 °F 93% 29.36 in 1.0 mi NNW 6.9 mph - 0.01 in Snow Light Snow
10:51 PM 26.6 °F 19.1 °F 24.8 °F 93% 29.35 in 0.5 mi NNW 6.9 mph - 0.02 in Snow Light Snow
11:12 PM 26.6 °F 21.2 °F 24.8 °F 93% 29.34 in 0.5 mi NNW 4.6 mph - N/A Snow Snow
11:31 PM 26.6 °F 19.1 °F 24.8 °F 93% 29.32 in 0.5 mi NNW 6.9 mph - N/A Snow Snow
11:51 PM 26.6 °F 21.2 °F 24.8 °F 93% 29.29 in 0.2 mi NNW 4.6 mph - N/A Snow Snow